Погода в Туркестане

Погода в Туркестане : погода сейчас, прогноз погоды и архив. Всё, что Вы хотите узнать о погоде в Туркестане!

Хотите узнать прогноз погоды в Туркестане? Тогда Вам сюда: Погода в Туркестане

Поиск расширенной информации на нашем сайте:

Полезная информация:

Другие новости

Новости СМИ2

Главная страница сайта

Новости сайта

03.07.2017

Напоминаем, что на нашем специализированном сайте Метеоцентр.Азия вы можете получить высокодетализированные автоматические прогнозы погоды по пунктам России, СНГ и мира в авиационном формате (включающие направление и скорость ветра, видимость, явления погоды, количество и форму облачности, нижнюю и верхнюю границу облачности).

Рекомендуем:

Погода в Туркестане - сегодня

Время (UTC), дата Ветер
(°,м/с) 
Видим.   Явления Облачность Т
(°С)
Тd
(°С)
f(%) Тe
(°С)
Pmin
(гПа)
dP
(гПа)
Po
(мм)
O2
(г/м3)
Тmin Tmax R s Состояние
почвы
03 16.07.19 тихо ()   10 км    ясно 
+32.4 +11.2 27 +36  1000.6  0.9  734  262           
06 16.07.19 330 (СЗ) 10 км    ясно 
+38 +3.7 12 +38  1000.2  734  259  +26.7         
09 16.07.19 030 (СВ) 10 км    ясно 
+40.9 +0.5 8 +41  999.3  -0.7  733  257           
12 16.07.19 060 (СВ) 10 км    ясно 
+40.6 -0.9 8 +41  998.8  -0.5  733  257           
15 16.07.19 300 (СЗ) 10 км    ясно 
+37 +8.4 18 +37  999.6  0.6  733  259    +41.2       
18 16.07.19 050 (СВ) н/о    ясно 
+31.7 +5 19 +32  1000.7  0.6  734  264    +41.2       
21 16.07.19 030 (СВ) н/о    ясно 
+27.5 +7.1 27 +28  1000.7  -0.3  733  267           
00 17.07.19 020 (С) 10 км    ясно 
+27.3 +6.4 26 +27  1001.6  0.9  734  268           
03 17.07.19 050 (СВ) 10 км    ясно 
+34.2 +11.1 25 +37  1001.8  0.7  734  261           
06 17.07.19 040 (СВ) 20000 м    ясно 
+39.8 +2.2 10 +40  1001.7  0.3  735  258  +26.4         
09 17.07.19 030 (СВ) 20000 м    ясно 
+42.1 -0.2 7 +42  1000.2  -1.3  734  256           
12 17.07.19 280 (З) 20000 м    ясно 
+42 +5.6 11 +42  999.4  -0.8  733  255           
15 17.07.19 310 (СЗ) 20000 м    ясно 
+37.7 +8.2 17 +38  1000.2  0.5  734  258    +43       
18 17.07.19 тихо ()   н/о    ясно 
+29.3 +9.7 30 +31  1001.3  0.5  734  265    +43       
21 17.07.19 020 (С) н/о    ясно 
+29 +2.8 19 +29  1000.4  -0.9  733  267           
00 18.07.19 020 (С) 20000 м    ясно 
+25 +4.4 26 +25  1001.2  0.4  734  270           
03 18.07.19 050 (СВ) 20000 м    ясно 
+35.3 +7.7 18 +35  1000.6  0.2  734  261           
06 18.07.19 050 (СВ) 20000 м    ясно 
+42 -5.4 5 +42  1000.1  -0.1  734  257  +24.7         
09 18.07.19 080 (В) 20000 м    ясно 
+42.9 -2.3 6 +43  999.4  -0.6  733  255           
12 18.07.19 330 (СЗ) 20000 м    ясно 
+42.9 -4.7 5 +43  998.9  -0.5  733  256           
15 18.07.19 350 (С) 20000 м    ясно 
+37.1 +0.5 10 +37  999.8  0.5  733  260    +43.7       
18 18.07.19 030 (СВ) н/о    ясно 
+32.8 -1.2 11 +33  1000.7  0.6  734  264    +43.7       
21 18.07.19 020 (С) н/о    ясно 
+29.3 -0.9 14 +29  1000.5  -0.5  733  267           
00 19.07.19 020 (С) 20000 м    ясно 
+28.2 +1.1 17 +28  1000.5  733  268           
03 19.07.19 тихо ()   20000 м    ясно 
+35.6 +5.8 16 +36  1000.5  0.5  734  261           
Время (UTC), дата Ветер
(°,м/с) 
Видим.   Явления Облачность Т
(°С)
Тd
(°С)
f(%) Тe
(°С)
Pmin
(гПа)
dP
(гПа)
Po
(мм)
O2
(г/м3)
Тmin Tmax R s Состояние
почвы

Для получения пояснительной информации подведите курсор к названию столбца.

ПОГОДА в Туркестане - архив

Всё, что Вы хотите узнать о погоде в Туркестане - удобно и подробно!

Выберите нужную дату (начиная с 1 января 2018* года) и нажмите кнопку "Найти".
Будут отображены архивные сводки погоды по пункту Туркестан, начиная с указанной даты.


Отображать данные в формате CSV (для использования в таблицах Excel)


Внимание! Наш архив погоды предназначен исключительно для личного некоммерческого использования в познавательных целях. Если Вам необходимы официальные справки о состоянии погоды (для производственных, юридических, коммерческих и т.п. целей), обращайтесь в органы Росгидромета.

*Примечание: данная дата относится к архиву по метеостанциям СССР (Россия, СНГ, Балтия).
Архив по метеостанциям Зарубежной Европы и Азии (кроме Китая) хранится 10 дней, по другим регионам земного шара (Китай, Африка, Америка, Австралия, Океания) - 1 день.

Туркестан - район местоположения метеостанции


Название, широта, долгота, высота метеостанции:
Туркестан 43.3°ш. 68.2°д. 207 м над ур. моря [Казахстан]

Дополнительная информация

В oтличие oт бoльшинства пoгoдных сайтoв мы публикуем пoдрoбную метеoинфoрмацию в детальнoм прoфессиoнальнoм фoрмате.

Характеристики температуры и влажнoсти вoздуха измеряются на высoте 2 м в тени вдали oт зданий и деревьев.
Скoрoсть ветра измеряется на высoте 10 м (на урoвне рoста челoвека скoрoсть ветра ниже в 1.5-2 раза). Если метеoстанция нахoдится в гoрoде или в лесу, тo скoрoсть ветра занижена на 2-4 м/с пo сравнению с oткрытым местoм. Скoрoсть ветра над акватoриями крупных рек и oзёр, а также на вершинах хoлмoв на 2-5 м/с выше, чем в oбычных услoвиях.
Атмoсфернoе давление в разных тoчках местнoсти мoжет значительнo oтличаться oт давления на метеoстанции, в зависимoсти oт услoвий рельефа (при пoдъёме на 10 м давление пoнижается примернo на 1 мм рт.ст.).